Weather History for CYVR - May, 2014

Change the Weather History Date:

Thursday, May 1, 2014

  Actual Average Record
Temperature  
Mean Temperature 59 °F -  
Max Temperature 71 °F 55 °F 75 °F (2004)
Min Temperature 47 °F 43 °F 36 °F (2013)
Degree Days  
Heating Degree Days 6    
Growing Degree Days 9 (Base 50)    
Moisture  
Dew Point 50 °F    
Average Humidity 67    
Maximum Humidity 88    
Minimum Humidity 35    
Precipitation  
Precipitation 0.00 in - - ()
Sea Level Pressure  
Sea Level Pressure 30.06 in    
Wind  
Wind Speed 5 mph ()    
Max Wind Speed 12 mph    
Max Gust Speed -    
Averages and records for this station are not official NWS values.
T = Trace of Precipitation, MM = Missing Value Source: Averaged Metar Reports

Daily Weather History Graph

Daily Weather History Graph

Search for Another Location

Airport or City:

Trip Planner

Search our weather history database for the weather conditions in past years. The results will help you decide how hot, cold, wet, or windy it might be!

Date:

Astronomy

May. 01, 2014 Rise Set
Actual Time 5:51 AM PDT 8:29 PM PDT
Civil Twilight 5:15 AM PDT 9:05 PM PDT
Nautical Twilight 4:29 AM PDT 9:51 PM PDT
Astronomical Twilight 3:36 AM PDT 10:45 PM PDT
Moon 7:38 AM PDT 11:12 PM PDT
Length of Visible Light 15h 50m
Length of Day
14h 38m
Waxing Crescent, 7% of the Moon is Illuminated
May 1
Waxing Crescent
May 6
First Quarter
May 14
Full
May 21
Last Quarter
May 28
New

Hourly Weather History & Observations

Time (PDT) Temp. Dew Point Humidity Pressure Visibility Wind Dir Wind Speed Gust Speed Precip Events Conditions
12:00 AM 55.4 °F 50.0 °F 82% 30.19 in 30.0 mi NW 8.1 mph - N/A   Scattered Clouds
1:00 AM 55.4 °F 50.0 °F 82% 30.18 in 30.0 mi NNW 6.9 mph - N/A   Scattered Clouds
2:00 AM 55.4 °F 48.2 °F 77% 30.17 in 30.0 mi WNW 3.5 mph - N/A   Scattered Clouds
3:00 AM 55.4 °F 48.2 °F 77% 30.16 in 30.0 mi NNE 2.3 mph - N/A   Partly Cloudy
4:00 AM 51.8 °F 46.4 °F 82% 30.15 in 30.0 mi North 2.3 mph - N/A   Scattered Clouds
5:00 AM 51 °F 46 °F 77% 30.14 in 28 mi North 1.2 mph - -   Clear
5:00 AM 51.8 °F 46.4 °F 82% 30.14 in 30.0 mi Calm Calm - N/A   Partly Cloudy
6:00 AM 50.0 °F 46.4 °F 87% 30.14 in 30.0 mi Calm Calm - N/A   Mostly Cloudy
7:00 AM 53.6 °F 50.0 °F 88% 30.13 in 30.0 mi ESE 2.3 mph - N/A   Overcast
8:00 AM 55.4 °F 50.0 °F 82% 30.12 in 30.0 mi West 2.3 mph - N/A   Overcast
9:00 AM 59.0 °F 51.8 °F 77% 30.10 in 30.0 mi NW 6.9 mph - N/A   Overcast
10:00 AM 62.6 °F 50.0 °F 63% 30.09 in 30.0 mi West 8.1 mph - N/A   Overcast
11:00 AM 64 °F 48 °F 45% 30.09 in 28 mi West 6.9 mph - -   Overcast
11:00 AM 64.4 °F 48.2 °F 56% 30.09 in 30.0 mi West 8.1 mph - N/A   Overcast
12:00 PM 64.4 °F 51.8 °F 64% 30.07 in 30.0 mi West 6.9 mph - N/A   Overcast
1:00 PM 66.2 °F 53.6 °F 64% 30.06 in 30.0 mi West 6.9 mph - N/A   Overcast
2:00 PM 66.2 °F 53.6 °F 64% 30.04 in 30.0 mi West 6.9 mph - N/A   Mostly Cloudy
4:00 PM 68.0 °F 50.0 °F 52% 29.99 in 30.0 mi WSW 8.1 mph - N/A   Mostly Cloudy
5:00 PM 70 °F 48 °F 35% 29.98 in 28 mi West 4.6 mph - -   Clear
5:00 PM 69.8 °F 48.2 °F 46% 29.98 in 30.0 mi WSW 5.8 mph - N/A   Mostly Cloudy
6:00 PM 68.0 °F 53.6 °F 60% 29.96 in 30.0 mi WSW 11.5 mph - N/A   Mostly Cloudy
6:04 PM 64.4 °F 53.6 °F 68% 29.96 in 30.0 mi WSW 10.4 mph - N/A   Mostly Cloudy
7:00 PM 66.2 °F 55.4 °F 68% 29.96 in 30.0 mi NW 4.6 mph - N/A   Mostly Cloudy
8:00 PM 62.6 °F 51.8 °F 68% 29.94 in 30.0 mi North 2.3 mph - N/A   Mostly Cloudy
9:00 PM 62.6 °F 48.2 °F 59% 29.94 in 30.0 mi Calm Calm - N/A   Mostly Cloudy
10:00 PM 62.6 °F 48.2 °F 59% 29.96 in 30.0 mi SE 5.8 mph - N/A   Scattered Clouds
11:00 PM 60 °F 47 °F 52% 29.97 in 28 mi East 6.9 mph - -   Clear
11:00 PM 60.8 °F 46.4 °F 59% 29.96 in 30.0 mi East 9.2 mph - N/A   Scattered Clouds